Details From LFMU - Béziers Vias
To PAOR - Northway
Flight Number -
Tags Generated
Created
Modified
Stats Distance 4,215 nm / 7,807 km
Max Altitude 0 ft / 0 m
Waypoints 9
Social Downloads 1
Likes 0
Share VATSIM

Download

Looking for another format? Having issues loading an existing format? Contact us
Advertisement - Login to hide

Notes

Generated

Route

LFMU CTX HAWKE POL22 GUSSI N7215 UB ORT12 PAOR

ID Type Via Altitude Latitude Longitude Leg Dist Tot Dist Heading (true) Name
O LFMU APT - 0 ft / 0 m 43.32402˚ 3.34239˚ - 0 nm - -
CTX NDB - 0 ft / 0 m 46.93661˚ 1.80114˚ 226 nm 226 nm 344° / 343° CHATEAUROUX NDB
HAWKE FIX - 0 ft / 0 m 50.37417˚ 0.09028˚ 217 nm 443 nm 342° / 341° -
POL22 FIX - 0 ft / 0 m 54.09528˚ -1.99583˚ 236 nm 680 nm 342° / 340° -
GUSSI FIX - 0 ft / 0 m 57.21306˚ -4.12417˚ 200 nm 880 nm 340° / 338° -
N7215 FIX - 0 ft / 0 m 72.25000˚ -125.00000˚ 2659 nm 3540 nm 338° / 222° -
UB NDB - 0 ft / 0 m 69.43444˚ -133.01722˚ 231 nm 3771 nm 227° / 219° TUKTOYAKTUK NDB
ORT12 FIX - 0 ft / 0 m 62.96102˚ -141.94428˚ 443 nm 4215 nm 213° / 205° -
O PAOR APT - 0 ft / 0 m 62.96009˚ -141.93867˚ 0 nm 4215 nm 110° / 110° -

Altitude Profile

Advertisement - Login to hide

Weather


0- 5 10 15 20 25 30 35+ Temperature / ° C

Clouds and Precipitation
Forecast for 2017-12-17 00:00 UTC. Updated 2 hours ago

Ground ~20,000 ft ~40,000 ft Winds

LFMU

Details ICAO LFMU (BZR)
Name Beziers Vias
Region France
Timezone Europe/Paris (UTC+1.0)
Stats Elevation 54 ft / 16 m (AMSL)
Location 43.323422° 3.353573°
Runways 1
Magnetic Variation 1.101° E

METAR

LFMU 170100Z AUTO 31009KT CAVOK 04/M02 Q1024

Decode

TAF

TAF LFMU 161932Z 1619/1715 CNL= TAF AMD LOWG 161932Z 1619/1718 02005KT 9999 FEW040 SCT070 TX03/1712Z TNM04/1705Z TEMPO 1619/1709 VRB02KT 0800 FZBCFG PROB30 TEMPO 1621/1707 0200 FZBCFG SCT001 TEMPO 1716/1718 4000 BR

Decode

Departure Runways

ID Width Length Bearing (true) Bearing (mag) Surface Threshold Offset Overrun Length
10 115 ft / 35 m 5,955 ft / 1,815 m 94.20° 93.10° Asphalt 459 ft / 140 m 0 ft / 0 m
28 115 ft / 35 m 5,955 ft / 1,815 m 274.22° 273.12° Asphalt 0 ft / 0 m 0 ft / 0 m

PAOR

Details ICAO PAOR (ORT)
Name NORTHWAY
Region USA (Alaska)
Timezone America/Anchorage (UTC-9.0)
Stats Elevation 1,716 ft / 523 m (AMSL)
Location 62.961333° -141.929136°
Runways 1
Magnetic Variation 18.937° E

METAR

PAOR 170053Z 00000KT 10SM SCT120 BKN150 M18/M19 A2919

Decode

TAF

PAOR 162335Z 1700/1724 VRB04KT P6SM SCT050 SCT100 BKN200 FM171200 VRB04KT P6SM SCT025 BKN100 OVC200 FM171800 VRB03KT P6SM VCSH SCT025 BKN050 OVC100

Decode

Destination Runways

ID Width Length Bearing (true) Bearing (mag) Surface Threshold Offset Overrun Length
04 100 ft / 30 m 3,293 ft / 1,004 m 73.97° 55.03° Gravel 0 ft / 0 m 1,353 ft / 412 m
22 100 ft / 30 m 3,293 ft / 1,004 m 253.99° 235.05° Gravel 0 ft / 0 m 1,000 ft / 305 m

Popular Alternatives